Location: ??????????
(31.2156°N, 29.9553°E)
Time: 04:26:41
(UTC+00:00)

Meteor 1-20 Rocket - Pass Details

Date: 03 March 2021
Orbit: 820 x 891 km, 81.2° (Epoch: 14 April)

Event Time Altitude Azimuth Distance (km) Brightness Sun altitude
Rises 16:20:35 0° 189° (S) 3,341 7.5 -5.2°
Reaches altitude 10° 16:22:58 10° 190° (S) 2,408 6.8 -5.7°
Maximum altitude 16:28:25 81° 278° (W) 834 4.3 -6.9°
Drops below altitude 10° 16:33:53 10° 5° (N) 2,425 6.5 -8.1°
Sets 16:36:18 0° 7° (N) 3,366 7.2 -8.6°
